Terug naar catalogus

STARLINK-35951

ActiefCommunicatieVLEO
NORAD 66619·PAYLOAD·🇺🇸 United States

Gelanceerd Nov 23, 2025 vanaf Vandenberg Space Force Base

Loading…

Volgende Passages (komende 24 uur)

TLE

VersSource: CelesTrak SupGP

Epoch: Sep 15, 2026, 03:39 UTC

1 66619C 25271C   26258.15256944  .00063261  00000+0  18684-2 0  2588
2 66619  53.1588 338.4448 0001267  84.9164 318.9739 15.34370473    10

Volg STARLINK-35951 in realtime met AllMySat

Download on the App Store